Tracking 20228 objects as of 17-Jan-2020
HD Live streaming from Space Station
objects crossing your sky now

FENGYUN 1C DEB

Track FENGYUN 1C DEB now!
10-day predictions


NORAD ID: 31751
Int'l Code: 1999-025CFA
Perigee: 724.8 km
Apogee: 808.4 km
Inclination: 98.9 °
Period: 100.0 minutes
Semi major axis: 7137 km
RCS: 0.0135 m2 (small)
Launch date: May 10, 1999
Source: People's Republic of China (PRC)
Launch site: Taiyaun Space Center, China (TSC)

Note: This is SATELLITE DEBRIS
aabbcc
Your satellite tracking list
Your tracking list is empty




NASA's NSSDC Master Catalog

Two Line Element Set (TLE):
1 31751U 99025CFA 20017.15381061  .00001445  00000-0  46719-3 0  9991
2 31751  98.8694 141.1184 0058598   3.0643 357.0891 14.39704644661013
Source of the keplerian elements: AFSPC